Location: Vigo di Fassa
(46.4167°N, 11.6667°E)
Time: 21:30:32
(UTC+00:00)

Cosmos 2084 Rocket - Pass Details

Date: 03 March 2021
Orbit: 527 x 653 km, 62.8° (Epoch: 21 April)

Event Time Altitude Azimuth Distance (km) Brightness Sun altitude
Rises 18:24:03 0° 317° (NW) 2,810 7.8 -14.9°
Reaches altitude 10° 18:26:17 10° 313° (NW) 1,928 6.9 -15.2°
Maximum altitude 18:30:34 59° 235° (SW) 704 4.0 -16.0°
Enters shadow 18:34:46 11° 156° (SSE) 1,898 5.7 -16.7°
